Location: Tucson
(32.2217°N, 110.9265°W)
Time: 19:33:27
(UTC-07:00)

Transit 2A Rocket - Visible Passes

Search period start: 08 August 2022 00:00
Search period end: 18 August 2022 00:00
Orbit: 594 x 907 km, 66.7° (Epoch: 08 August)

Date Brightness Start Highest point End Pass type
(mag) Time Alt. Az. Time Alt. Az. Time Alt. Az.
08 Aug 4.9 04:55:29 10° NNW 04:59:58 75° ENE 05:04:48 10° SSE visible
09 Aug 6.3 04:12:56 10° N 04:17:06 37° ENE 04:21:32 10° SE visible
10 Aug 7.3 03:30:51 10° N 03:34:08 20° ENE 03:37:34 10° ESE visible
10 Aug 5.3 05:12:32 10° NW 05:16:38 34° WSW 05:21:01 10° S visible
10 Aug 7.8 19:44:15 10° W 19:47:15 17° NW 19:50:08 10° NNW visible
11 Aug 8.0 02:50:16 10° NE 02:51:02 10° NE 02:51:49 10° ENE visible
11 Aug 4.6 04:29:22 10° NNW 04:33:52 70° WSW 04:38:43 10° SSE visible
12 Aug 5.3 03:46:36 10° NNW 03:51:02 57° ENE 03:55:49 10° SE visible
13 Aug 6.5 03:04:12 10° N 03:08:09 29° ENE 03:12:19 10° ESE visible
13 Aug 5.8 04:46:53 10° WNW 04:50:28 23° WSW 04:54:16 10° SSW visible
14 Aug 7.4 02:22:22 10° NNE 02:25:07 16° NE 02:27:58 10° E visible
14 Aug 4.9 04:03:23 10° NW 04:14:37 - S 04:07:41 45° WSW visible
15 Aug 6.4 03:20:24 10° NNW 03:22:10 24° NNW 03:22:10 24° NNW visible
16 Aug 7.3 02:37:46 10° N 02:38:29 14° N 02:38:29 14° N visible
